,,,PA_Meas_PMT16A,,PR_Meas_QMR101_102,,RH_Meas_QMH101,,SR_Meas_QMS101,,TA_Meas_QMH101,,GenWind,,GenWind,
date,time,status,PA,status,PR,status,RH,status,SR,status,TA,status,DirAvg,status,SpdAvg,
2012-03-28, 00:00:05,VALID,1012,VALID,0,VALID,104,VALID,0,VALID,24.2396,VALID,43,VALID,0.433203,
2012-03-28, 00:01:05,VALID,1011.96,VALID,0,VALID,104,VALID,0,VALID,24.2591,VALID,43,VALID,0.357031,
2012-03-28, 00:02:05,VALID,1011.94,VALID,0,VALID,104,VALID,0,VALID,24.2396,VALID,43,VALID,0.227344,
2012-03-28, 00:03:05,VALID,1011.9,VALID,0,VALID,104,VALID,0,VALID,24.2591,VALID,43,VALID,0.0832031,
2012-03-28, 00:04:05,VALID,1011.89,VALID,0,VALID,104,VALID,0,VALID,24.2591,VALID,43,VALID,0.0375,
2012-03-28, 00:05:05,VALID,1011.88,VALID,0,VALID,104,VALID,0,VALID,24.2591,VALID,43,VALID,0,
2012-03-28, 00:06:05,VALID,1011.87,VALID,0,VALID,104,VALID,0,VALID,24.2396,VALID,43,VALID,0,
2012-03-28, 00:07:05,VALID,1011.89,VALID,0,VALID,104,VALID,0,VALID,24.2202,VALID,43,VALID,0,
2012-03-28, 00:08:05,VALID,1011.86,VALID,0,VALID,104,VALID,0,VALID,24.2202,VALID,43,VALID,0,
2012-03-28, 00:09:05,VALID,1011.86,VALID,0,VALID,104,VALID,0,VALID,24.2007,VALID,43,VALID,0,
2012-03-28, 00:10:05,VALID,1011.86,VALID,0,VALID,104,VALID,0,VALID,24.2007,VALID,43,VALID,0,
2012-03-28, 00:11:05,VALID,1011.88,VALID,0,VALID,104,VALID,0,VALID,24.1812,VALID,43,VALID,0,
2012-03-28, 00:12:05,VALID,1011.88,VALID,0,VALID,104,VALID,0,VALID,24.1617,VALID,43,VALID,0,
2012-03-28, 00:13:05,VALID,1011.85,VALID,0,VALID,104,VALID,0,VALID,24.1227,VALID,43,VALID,0,
2012-03-28, 00:14:05,VALID,1011.86,VALID,0,VALID,104,VALID,0,VALID,24.0819,VALID,43,VALID,0,
2012-03-28, 00:15:05,VALID,1011.84,VALID,0,VALID,104,VALID,0,VALID,24.1032,VALID,43,VALID,0,
2012-03-28, 00:16:05,VALID,1011.81,VALID,0,VALID,104,VALID,0,VALID,24.0643,VALID,43,VALID,0,
2012-03-28, 00:17:05,VALID,1011.8,VALID,0,VALID,104,VALID,0,VALID,24.0643,VALID,43,VALID,0,
2012-03-28, 00:18:05,VALID,1011.8,VALID,0,VALID,104,VALID,0,VALID,24.0235,VALID,43,VALID,0,
2012-03-28, 00:19:05,VALID,1011.82,VALID,0,VALID,104,VALID,0,VALID,24.0429,VALID,43,VALID,0.354297,
2012-03-28, 00:20:05,VALID,1011.79,VALID,0,VALID,104,VALID,0,VALID,24.0643,VALID,43,VALID,0.400781,
2012-03-28, 00:21:05,VALID,1011.82,VALID,0,VALID,104,VALID,0,VALID,24.0235,VALID,43,VALID,0.367188,
2012-03-28, 00:22:05,VALID,1011.84,VALID,0,VALID,104,VALID,0,VALID,24.0448,VALID,43,VALID,0.0601562,
2012-03-28, 00:23:05,VALID,1011.83,VALID,0,VALID,104,VALID,0,VALID,24.0253,VALID,43,VALID,0.0339844,
2012-03-28, 00:24:05,VALID,1011.82,VALID,0,VALID,104,VALID,0,VALID,24.0643,VALID,43,VALID,0.0667969,
2012-03-28, 00:25:05,VALID,1011.82,VALID,0,VALID,104,VALID,0,VALID,24.0643,VALID,43,VALID,0,
2012-03-28, 00:26:05,VALID,1011.8,VALID,0,VALID,104,VALID,0,VALID,24.0253,VALID,43,VALID,0,
2012-03-28, 00:27:05,VALID,1011.81,VALID,0,VALID,104,VALID,0,VALID,23.9845,VALID,43,VALID,0,
2012-03-28, 00:28:05,VALID,1011.76,VALID,0,VALID,104,VALID,0,VALID,23.9863,VALID,43,VALID,0,
2012-03-28, 00:29:05,VALID,1011.75,VALID,0,VALID,104,VALID,0,VALID,23.9668,VALID,43,VALID,0,
2012-03-28, 00:30:05,VALID,1011.77,VALID,0,VALID,104,VALID,0,VALID,23.9278,VALID,43,VALID,0,
2012-03-28, 00:31:05,VALID,1011.77,VALID,0,VALID,104,VALID,0,VALID,23.9065,VALID,43,VALID,0,
2012-03-28, 00:32:05,VALID,1011.77,VALID,0,VALID,104,VALID,0,VALID,23.9065,VALID,43,VALID,0,
2012-03-28, 00:33:05,VALID,1011.75,VALID,0,VALID,104,VALID,0.112112,VALID,23.9084,VALID,43,VALID,0,
2012-03-28, 00:34:05,VALID,1011.76,VALID,0,VALID,104,VALID,0,VALID,23.8481,VALID,43,VALID,0,
2012-03-28, 00:35:05,VALID,1011.74,VALID,0,VALID,104,VALID,0,VALID,23.8304,VALID,43,VALID,0.356641,
2012-03-28, 00:36:05,VALID,1011.76,VALID,0,VALID,104,VALID,0,VALID,23.7896,VALID,43,VALID,0.380859,
2012-03-28, 00:37:05,VALID,1011.8,VALID,0,VALID,104,VALID,0,VALID,23.8109,VALID,43,VALID,0.463672,
2012-03-28, 00:38:05,VALID,1011.82,VALID,0,VALID,104,VALID,0,VALID,23.8499,VALID,43,VALID,0.412891,
2012-03-28, 00:39:05,VALID,1011.82,VALID,0,VALID,104,VALID,0,VALID,23.8694,VALID,43,VALID,0.292969,
2012-03-28, 00:40:05,VALID,1011.86,VALID,0,VALID,104,VALID,0,VALID,23.8499,VALID,43,VALID,0.220313,
2012-03-28, 00:41:05,VALID,1011.85,VALID,0,VALID,104,VALID,0,VALID,23.8304,VALID,43,VALID,0.266797,
2012-03-28, 00:42:05,VALID,1011.86,VALID,0,VALID,104,VALID,0,VALID,23.8109,VALID,43,VALID,0.071875,
2012-03-28, 00:43:05,VALID,1011.82,VALID,0,VALID,104,VALID,0,VALID,23.8109,VALID,43,VALID,0,
2012-03-28, 00:44:05,VALID,1011.8,VALID,0,VALID,104,VALID,0,VALID,23.7701,VALID,43,VALID,0,
2012-03-28, 00:45:05,VALID,1011.78,VALID,0,VALID,104,VALID,0,VALID,23.8109,VALID,43,VALID,0,
2012-03-28, 00:46:05,VALID,1011.74,VALID,0,VALID,104,VALID,0,VALID,23.7914,VALID,43,VALID,0,
2012-03-28, 00:47:05,VALID,1011.74,VALID,0,VALID,104,VALID,0,VALID,23.772,VALID,43,VALID,0,
2012-03-28, 00:48:05,VALID,1011.72,VALID,0,VALID,104,VALID,0,VALID,23.733,VALID,43,VALID,0,
2012-03-28, 00:49:05,VALID,1011.74,VALID,0,VALID,104,VALID,0,VALID,23.733,VALID,43,VALID,0,
2012-03-28, 00:50:05,VALID,1011.71,VALID,0,VALID,104,VALID,0,VALID,23.7135,VALID,43,VALID,0,
2012-03-28, 00:51:05,VALID,1011.69,VALID,0,VALID,104,VALID,0,VALID,23.7117,VALID,43,VALID,0,
2012-03-28, 00:52:05,VALID,1011.68,VALID,0,VALID,104,VALID,0,VALID,23.733,VALID,43,VALID,0,
2012-03-28, 00:53:05,VALID,1011.65,VALID,0,VALID,104,VALID,0,VALID,23.733,VALID,43,VALID,0,
2012-03-28, 00:54:05,VALID,1011.67,VALID,0,VALID,104,VALID,0,VALID,23.7135,VALID,43,VALID,0,
2012-03-28, 00:55:05,VALID,1011.68,VALID,0,VALID,104,VALID,0,VALID,23.7153,VALID,43,VALID,0,
2012-03-28, 00:56:05,VALID,1011.69,VALID,0,VALID,104,VALID,0,VALID,23.6745,VALID,43,VALID,0,
2012-03-28, 00:57:05,VALID,1011.68,VALID,0,VALID,104,VALID,0,VALID,23.655,VALID,43,VALID,0,
2012-03-28, 00:58:05,VALID,1011.68,VALID,0,VALID,104,VALID,0,VALID,23.6161,VALID,43,VALID,0,
2012-03-28, 00:59:05,VALID,1011.68,VALID,0,VALID,104,VALID,0,VALID,23.6356,VALID,43,VALID,0,
2012-03-28, 01:00:05,VALID,1011.62,VALID,0,VALID,104,VALID,0,VALID,23.6356,VALID,43,VALID,0,
2012-03-28, 01:01:05,VALID,1011.63,VALID,0,VALID,104,VALID,0.112112,VALID,23.6356,VALID,43,VALID,0,
2012-03-28, 01:02:05,VALID,1011.61,VALID,0,VALID,104,VALID,0,VALID,23.6161,VALID,43,VALID,0.248047,
2012-03-28, 01:03:05,VALID,1011.62,VALID,0,VALID,104,VALID,0,VALID,23.655,VALID,43,VALID,0.177344,
2012-03-28, 01:04:05,VALID,1011.61,VALID,0,VALID,104,VALID,0,VALID,23.6745,VALID,43,VALID,0,
2012-03-28, 01:05:05,VALID,1011.59,VALID,0,VALID,104,VALID,0,VALID,23.6745,VALID,43,VALID,0.121094,
2012-03-28, 01:06:05,VALID,1011.61,VALID,0,VALID,104,VALID,0,VALID,23.6745,VALID,43,VALID,0,
2012-03-28, 01:07:05,VALID,1011.6,VALID,0,VALID,104,VALID,0,VALID,23.6727,VALID,43,VALID,0,
2012-03-28, 01:08:05,VALID,1011.62,VALID,0,VALID,104,VALID,0.112112,VALID,23.6745,VALID,43,VALID,0,
2012-03-28, 01:09:05,VALID,1011.63,VALID,0,VALID,104,VALID,0,VALID,23.694,VALID,43,VALID,0,
2012-03-28, 01:10:05,VALID,1011.65,VALID,0,VALID,104,VALID,0,VALID,23.694,VALID,43,VALID,0,
2012-03-28, 01:11:05,VALID,1011.62,VALID,0,VALID,104,VALID,0,VALID,23.694,VALID,43,VALID,0,
2012-03-28, 01:12:05,VALID,1011.59,VALID,0,VALID,104,VALID,0,VALID,23.7135,VALID,43,VALID,0.0464844,
2012-03-28, 01:13:05,VALID,1011.54,VALID,0,VALID,104,VALID,0,VALID,23.6727,VALID,43,VALID,0,
2012-03-28, 01:14:05,VALID,1011.54,VALID,0,VALID,104,VALID,0.112112,VALID,23.6727,VALID,43,VALID,0,
2012-03-28, 01:15:05,VALID,1011.49,VALID,0,VALID,104,VALID,0.112112,VALID,23.6727,VALID,43,VALID,0.00351562,
2012-03-28, 01:16:05,VALID,1011.47,VALID,0,VALID,104,VALID,0,VALID,23.694,VALID,43,VALID,0,
2012-03-28, 01:17:05,VALID,1011.48,VALID,0,VALID,104,VALID,0,VALID,23.6745,VALID,43,VALID,0,
2012-03-28, 01:18:05,VALID,1011.43,VALID,0,VALID,104,VALID,0,VALID,23.694,VALID,43,VALID,0,
2012-03-28, 01:19:05,VALID,1011.43,VALID,0,VALID,104,VALID,0.112112,VALID,23.6922,VALID,43,VALID,0,
2012-03-28, 01:20:05,VALID,1011.39,VALID,0,VALID,104,VALID,0,VALID,23.7525,VALID,43,VALID,0,
2012-03-28, 01:21:05,VALID,1011.36,VALID,0,VALID,104,VALID,0.112112,VALID,23.7914,VALID,43,VALID,0.0628906,
2012-03-28, 01:22:04,VALID,1011.33,VALID,0,VALID,104,VALID,0,VALID,23.8304,VALID,43,VALID,0.344922,
2012-03-28, 01:23:04,VALID,1011.33,VALID,0,VALID,104,VALID,0,VALID,23.8499,VALID,43,VALID,0.293359,
2012-03-28, 01:24:04,VALID,1011.32,VALID,0,VALID,104,VALID,0,VALID,23.8694,VALID,43,VALID,0.285547,
2012-03-28, 01:25:04,VALID,1011.27,VALID,0,VALID,104,VALID,0.112112,VALID,23.9297,VALID,43,VALID,0.0207031,
2012-03-28, 01:26:04,VALID,1011.23,VALID,0,VALID,104,VALID,0.112112,VALID,23.9065,VALID,43,VALID,0,
2012-03-28, 01:27:04,VALID,1011.16,VALID,0,VALID,104,VALID,0,VALID,23.9084,VALID,43,VALID,0,
2012-03-28, 01:28:04,VALID,1011.13,VALID,0,VALID,104,VALID,0,VALID,23.8889,VALID,43,VALID,0,
2012-03-28, 01:29:04,VALID,1011.09,VALID,0,VALID,104,VALID,0.112112,VALID,23.8694,VALID,43,VALID,0,
2012-03-28, 01:30:04,VALID,1011.08,VALID,0,VALID,104,VALID,0.112112,VALID,23.8304,VALID,43,VALID,0,
2012-03-28, 01:31:04,VALID,1011.11,VALID,0,VALID,104,VALID,0,VALID,23.7914,VALID,43,VALID,0,
2012-03-28, 01:32:04,VALID,1011.13,VALID,0,VALID,104,VALID,0,VALID,23.772,VALID,43,VALID,0,
2012-03-28, 01:33:04,VALID,1011.17,VALID,0,VALID,104,VALID,0,VALID,23.7525,VALID,43,VALID,0,
2012-03-28, 01:34:04,VALID,1011.18,VALID,0,VALID,104,VALID,0,VALID,23.7701,VALID,43,VALID,0,
2012-03-28, 01:35:04,VALID,1011.16,VALID,0,VALID,104,VALID,0,VALID,23.7914,VALID,43,VALID,0,
2012-03-28, 01:36:04,VALID,1011.15,VALID,0,VALID,104,VALID,0,VALID,23.7914,VALID,43,VALID,0,
2012-03-28, 01:37:04,VALID,1011.13,VALID,0,VALID,104,VALID,0,VALID,23.7525,VALID,43,VALID,0,
2012-03-28, 01:38:04,VALID,1011.17,VALID,0,VALID,104,VALID,0,VALID,23.6922,VALID,43,VALID,0,
2012-03-28, 01:39:04,VALID,1011.17,VALID,0,VALID,104,VALID,0,VALID,23.6745,VALID,43,VALID,0,
2012-03-28, 01:40:04,VALID,1011.17,VALID,0,VALID,104,VALID,0,VALID,23.6745,VALID,43,VALID,0.241016,
2012-03-28, 01:41:04,VALID,1011.15,VALID,0,VALID,104,VALID,0,VALID,23.6745,VALID,43,VALID,0.155859,
2012-03-28, 01:42:04,VALID,1011.16,VALID,0,VALID,104,VALID,0.112112,VALID,23.6532,VALID,43,VALID,0,
2012-03-28, 01:43:04,VALID,1011.13,VALID,0,VALID,104,VALID,0,VALID,23.6745,VALID,43,VALID,0,
2012-03-28, 01:44:04,VALID,1011.09,VALID,0,VALID,104,VALID,0.112112,VALID,23.6745,VALID,43,VALID,0,
2012-03-28, 01:45:04,VALID,1011.08,VALID,0,VALID,104,VALID,0,VALID,23.6745,VALID,43,VALID,0,
2012-03-28, 01:46:04,VALID,1011.08,VALID,0,VALID,104,VALID,0.112112,VALID,23.655,VALID,43,VALID,0,
2012-03-28, 01:47:04,VALID,1011.07,VALID,0,VALID,104,VALID,0,VALID,23.655,VALID,43,VALID,0,
2012-03-28, 01:48:04,VALID,1011.05,VALID,0,VALID,104,VALID,0,VALID,23.6356,VALID,43,VALID,0,
2012-03-28, 01:49:04,VALID,1011.03,VALID,0,VALID,104,VALID,0,VALID,23.6356,VALID,43,VALID,0,
2012-03-28, 01:50:04,VALID,1011.04,VALID,0,VALID,104,VALID,0.112112,VALID,23.694,VALID,43,VALID,0.0015625,
2012-03-28, 01:51:04,VALID,1011.02,VALID,0,VALID,104,VALID,0,VALID,23.6922,VALID,43,VALID,0.346875,
2012-03-28, 01:52:04,VALID,1011.04,VALID,0,VALID,104,VALID,0,VALID,23.7525,VALID,43,VALID,0.371875,
2012-03-28, 01:53:04,VALID,1011.01,VALID,0,VALID,104,VALID,0,VALID,23.7914,VALID,43,VALID,0.308594,
2012-03-28, 01:54:04,VALID,1011.01,VALID,0,VALID,104,VALID,0,VALID,23.8109,VALID,43,VALID,0.0898438,
2012-03-28, 01:55:04,VALID,1011,VALID,0,VALID,104,VALID,0,VALID,23.8304,VALID,43,VALID,0.0261719,
2012-03-28, 01:56:04,VALID,1010.99,VALID,0,VALID,104,VALID,0,VALID,23.8712,VALID,43,VALID,0,
2012-03-28, 01:57:04,VALID,1010.97,VALID,0,VALID,104,VALID,0.112112,VALID,23.8304,VALID,43,VALID,0,
2012-03-28, 01:58:04,VALID,1010.96,VALID,0,VALID,104,VALID,0.112112,VALID,23.7507,VALID,43,VALID,0,
2012-03-28, 01:59:04,VALID,1010.95,VALID,0,VALID,104,VALID,0,VALID,23.7117,VALID,43,VALID,0.312891,
2012-03-28, 02:00:04,VALID,1010.94,VALID,0,VALID,104,VALID,0,VALID,23.6745,VALID,43,VALID,0.294531,
2012-03-28, 02:01:04,VALID,1010.95,VALID,0,VALID,104,VALID,0,VALID,23.655,VALID,43,VALID,0.330078,
2012-03-28, 02:02:04,VALID,1010.94,VALID,0,VALID,104,VALID,0,VALID,23.6143,VALID,43,VALID,0.274219,
2012-03-28, 02:03:04,VALID,1010.96,VALID,0,VALID,104,VALID,0,VALID,23.5966,VALID,43,VALID,0.290625,
2012-03-28, 02:04:04,VALID,1010.96,VALID,0,VALID,104,VALID,0,VALID,23.5771,VALID,43,VALID,0.366016,
2012-03-28, 02:05:04,VALID,1010.95,VALID,0,VALID,104,VALID,0,VALID,23.5576,VALID,43,VALID,0.260156,
2012-03-28, 02:06:04,VALID,1010.91,VALID,0,VALID,104,VALID,0,VALID,23.5186,VALID,43,VALID,0.090625,
2012-03-28, 02:07:04,VALID,1010.89,VALID,0,VALID,104,VALID,0,VALID,23.4992,VALID,43,VALID,0.306641,
2012-03-28, 02:08:04,VALID,1010.87,VALID,0,VALID,104,VALID,0,VALID,23.4797,VALID,43,VALID,0.298828,
2012-03-28, 02:09:04,VALID,1010.87,VALID,0,VALID,104,VALID,0,VALID,23.4797,VALID,43,VALID,0.216797,
2012-03-28, 02:10:04,VALID,1010.86,VALID,0,VALID,104,VALID,0.112112,VALID,23.4407,VALID,43,VALID,0,
2012-03-28, 02:11:04,VALID,1010.9,VALID,0,VALID,104,VALID,0,VALID,23.4212,VALID,43,VALID,0,
2012-03-28, 02:12:04,VALID,1010.91,VALID,0,VALID,104,VALID,0,VALID,23.4212,VALID,43,VALID,0,
2012-03-28, 02:13:04,VALID,1010.92,VALID,0,VALID,104,VALID,0,VALID,23.4017,VALID,43,VALID,0,
2012-03-28, 02:14:04,VALID,1010.94,VALID,0,VALID,104,VALID,0,VALID,23.4212,VALID,43,VALID,0,
2012-03-28, 02:15:04,VALID,1010.96,VALID,0,VALID,104,VALID,0,VALID,23.4212,VALID,43,VALID,0,
2012-03-28, 02:16:04,VALID,1010.94,VALID,0,VALID,104,VALID,0,VALID,23.4407,VALID,43,VALID,0,
2012-03-28, 02:17:04,VALID,1010.97,VALID,0,VALID,104,VALID,0,VALID,23.4797,VALID,43,VALID,0,
2012-03-28, 02:18:04,VALID,1010.97,VALID,0,VALID,104,VALID,0,VALID,23.4797,VALID,43,VALID,0,
2012-03-28, 02:19:04,VALID,1010.96,VALID,0,VALID,104,VALID,0.112112,VALID,23.4584,VALID,43,VALID,0,
2012-03-28, 02:20:04,VALID,1010.96,VALID,0,VALID,104,VALID,0,VALID,23.4584,VALID,43,VALID,0,
2012-03-28, 02:21:04,VALID,1010.98,VALID,0,VALID,104,VALID,0.112112,VALID,23.4584,VALID,43,VALID,0,
2012-03-28, 02:22:04,VALID,1010.99,VALID,0,VALID,104,VALID,0,VALID,23.4797,VALID,43,VALID,0,
2012-03-28, 02:23:04,VALID,1010.96,VALID,0,VALID,104,VALID,0,VALID,23.4779,VALID,43,VALID,0,
2012-03-28, 02:24:04,VALID,1010.96,VALID,0,VALID,104,VALID,0.112112,VALID,23.4779,VALID,43,VALID,0,
2012-03-28, 02:25:04,VALID,1010.95,VALID,0,VALID,104,VALID,0.112112,VALID,23.4992,VALID,43,VALID,0,
2012-03-28, 02:26:04,VALID,1010.92,VALID,0,VALID,104,VALID,0,VALID,23.4779,VALID,43,VALID,0,
2012-03-28, 02:27:04,VALID,1010.9,VALID,0,VALID,104,VALID,0,VALID,23.4584,VALID,43,VALID,0,
2012-03-28, 02:28:04,VALID,1010.91,VALID,0,VALID,104,VALID,0,VALID,23.4779,VALID,43,VALID,0,
2012-03-28, 02:29:04,VALID,1010.88,VALID,0,VALID,104,VALID,0,VALID,23.4797,VALID,43,VALID,0,
2012-03-28, 02:30:04,VALID,1010.9,VALID,0,VALID,104,VALID,0,VALID,23.4389,VALID,43,VALID,0.257813,
2012-03-28, 02:31:04,VALID,1010.91,VALID,0,VALID,104,VALID,0,VALID,23.4407,VALID,43,VALID,0.369922,
2012-03-28, 02:32:04,VALID,1010.92,VALID,0,VALID,104,VALID,0,VALID,23.4212,VALID,43,VALID,0.0183594,
2012-03-28, 02:33:04,VALID,1010.93,VALID,0,VALID,104,VALID,0,VALID,23.4212,VALID,43,VALID,0,
2012-03-28, 02:34:04,VALID,1010.92,VALID,0,VALID,104,VALID,0,VALID,23.4212,VALID,43,VALID,0,
2012-03-28, 02:35:04,VALID,1010.91,VALID,0,VALID,104,VALID,0.112112,VALID,23.3805,VALID,43,VALID,0,
2012-03-28, 02:36:04,VALID,1010.86,VALID,0,VALID,104,VALID,0,VALID,23.3628,VALID,43,VALID,0,
2012-03-28, 02:37:04,VALID,1010.83,VALID,0,VALID,104,VALID,0,VALID,23.3415,VALID,43,VALID,0.351563,
2012-03-28, 02:38:04,VALID,1010.8,VALID,0,VALID,104,VALID,0,VALID,23.3433,VALID,43,VALID,0.374219,
2012-03-28, 02:39:04,VALID,1010.79,VALID,0,VALID,104,VALID,0,VALID,23.3238,VALID,43,VALID,0.141406,
2012-03-28, 02:40:04,VALID,1010.79,VALID,0,VALID,104,VALID,0,VALID,23.3043,VALID,43,VALID,0,
2012-03-28, 02:41:04,VALID,1010.78,VALID,0,VALID,104,VALID,0,VALID,23.2848,VALID,43,VALID,0,
2012-03-28, 02:42:04,VALID,1010.76,VALID,0,VALID,104,VALID,0,VALID,23.2636,VALID,43,VALID,0,
2012-03-28, 02:43:04,VALID,1010.75,VALID,0,VALID,104,VALID,0,VALID,23.2636,VALID,43,VALID,0,
2012-03-28, 02:44:04,VALID,1010.72,VALID,0,VALID,104,VALID,0,VALID,23.2848,VALID,43,VALID,0.0421875,
2012-03-28, 02:45:04,VALID,1010.69,VALID,0,VALID,104,VALID,0,VALID,23.2848,VALID,43,VALID,0.138281,
2012-03-28, 02:46:04,VALID,1010.74,VALID,0,VALID,104,VALID,0,VALID,23.2654,VALID,43,VALID,0.174609,
2012-03-28, 02:47:04,VALID,1010.71,VALID,0,VALID,104,VALID,0,VALID,23.2459,VALID,43,VALID,0,
2012-03-28, 02:48:04,VALID,1010.68,VALID,0,VALID,104,VALID,0,VALID,23.2654,VALID,43,VALID,0,
2012-03-28, 02:49:04,VALID,1010.7,VALID,0,VALID,104,VALID,0,VALID,23.2848,VALID,43,VALID,0,
2012-03-28, 02:50:04,VALID,1010.71,VALID,0,VALID,104,VALID,0,VALID,23.2848,VALID,43,VALID,0,
2012-03-28, 02:51:04,VALID,1010.72,VALID,0,VALID,104,VALID,0,VALID,23.2654,VALID,43,VALID,0,
2012-03-28, 02:52:04,VALID,1010.76,VALID,0,VALID,104,VALID,0,VALID,23.2264,VALID,43,VALID,0,
2012-03-28, 02:53:04,VALID,1010.74,VALID,0,VALID,104,VALID,0,VALID,23.2459,VALID,43,VALID,0,
2012-03-28, 02:54:04,VALID,1010.75,VALID,0,VALID,104,VALID,0,VALID,23.3043,VALID,43,VALID,0,
2012-03-28, 02:55:04,VALID,1010.74,VALID,0,VALID,104,VALID,0,VALID,23.3238,VALID,43,VALID,0,
2012-03-28, 02:56:04,VALID,1010.7,VALID,0,VALID,104,VALID,0,VALID,23.3433,VALID,43,VALID,0,
2012-03-28, 02:57:04,VALID,1010.68,VALID,0,VALID,104,VALID,0,VALID,23.3433,VALID,43,VALID,0,
2012-03-28, 02:58:04,VALID,1010.67,VALID,0,VALID,104,VALID,0,VALID,23.322,VALID,43,VALID,0,
2012-03-28, 02:59:04,VALID,1010.66,VALID,0,VALID,104,VALID,0,VALID,23.3433,VALID,43,VALID,0,
2012-03-28, 03:00:04,VALID,1010.65,VALID,0,VALID,104,VALID,0,VALID,23.3238,VALID,43,VALID,0,
2012-03-28, 03:01:04,VALID,1010.61,VALID,0,VALID,104,VALID,0,VALID,23.3026,VALID,43,VALID,0,
2012-03-28, 03:02:04,VALID,1010.63,VALID,0,VALID,104,VALID,0,VALID,23.2636,VALID,43,VALID,0,
2012-03-28, 03:03:04,VALID,1010.59,VALID,0,VALID,104,VALID,0,VALID,23.2459,VALID,43,VALID,0,
2012-03-28, 03:04:04,VALID,1010.62,VALID,0,VALID,104,VALID,0,VALID,23.2264,VALID,43,VALID,0,
2012-03-28, 03:05:04,VALID,1010.61,VALID,0,VALID,104,VALID,0,VALID,23.2282,VALID,43,VALID,0,
2012-03-28, 03:06:04,VALID,1010.62,VALID,0,VALID,104,VALID,0,VALID,23.2069,VALID,43,VALID,0,
2012-03-28, 03:07:04,VALID,1010.63,VALID,0,VALID,104,VALID,0,VALID,23.1874,VALID,43,VALID,0,
2012-03-28, 03:08:04,VALID,1010.61,VALID,0,VALID,104,VALID,0,VALID,23.1874,VALID,43,VALID,0,
2012-03-28, 03:09:04,VALID,1010.61,VALID,0,VALID,104,VALID,0,VALID,23.2069,VALID,43,VALID,0,
2012-03-28, 03:10:04,VALID,1010.63,VALID,0,VALID,104,VALID,0,VALID,23.1874,VALID,43,VALID,0.0492188,
2012-03-28, 03:11:04,VALID,1010.64,VALID,0,VALID,104,VALID,0,VALID,23.1679,VALID,43,VALID,0.306641,
2012-03-28, 03:12:04,VALID,1010.63,VALID,0,VALID,104,VALID,0,VALID,23.1679,VALID,43,VALID,0.00195313,
2012-03-28, 03:13:04,VALID,1010.61,VALID,0,VALID,104,VALID,0,VALID,23.1485,VALID,43,VALID,0,
2012-03-28, 03:14:04,VALID,1010.62,VALID,0,VALID,104,VALID,0,VALID,23.1485,VALID,43,VALID,0,
2012-03-28, 03:15:04,VALID,1010.68,VALID,0,VALID,104,VALID,0,VALID,23.1467,VALID,43,VALID,0,
2012-03-28, 03:16:04,VALID,1010.66,VALID,0,VALID,104,VALID,0,VALID,23.1272,VALID,43,VALID,0.330469,
2012-03-28, 03:17:04,VALID,1010.68,VALID,0,VALID,104,VALID,0.112112,VALID,23.1679,VALID,43,VALID,0.0613281,
2012-03-28, 03:18:04,VALID,1010.68,VALID,0,VALID,104,VALID,0.112112,VALID,23.2264,VALID,43,VALID,0,
2012-03-28, 03:19:04,VALID,1010.69,VALID,0,VALID,104,VALID,0,VALID,23.2264,VALID,43,VALID,0.170703,
2012-03-28, 03:20:04,VALID,1010.69,VALID,0,VALID,104,VALID,0,VALID,23.2264,VALID,43,VALID,0.0015625,
2012-03-28, 03:21:04,VALID,1010.69,VALID,0,VALID,104,VALID,0,VALID,23.2459,VALID,43,VALID,0,
2012-03-28, 03:22:04,VALID,1010.68,VALID,0,VALID,104,VALID,0,VALID,23.2459,VALID,43,VALID,0.0378906,
2012-03-28, 03:23:04,VALID,1010.68,VALID,0,VALID,104,VALID,0,VALID,23.1679,VALID,43,VALID,0.420703,
2012-03-28, 03:24:04,VALID,1010.65,VALID,0,VALID,104,VALID,0.112112,VALID,23.0883,VALID,43,VALID,0.288672,
2012-03-28, 03:25:04,VALID,1010.68,VALID,0,VALID,104,VALID,0,VALID,23.0883,VALID,43,VALID,0,
2012-03-28, 03:26:04,VALID,1010.74,VALID,0,VALID,104,VALID,0,VALID,23.0298,VALID,43,VALID,0.0867188,
2012-03-28, 03:27:04,VALID,1010.81,VALID,0,VALID,104,VALID,0,VALID,23.0705,VALID,43,VALID,0.526172,
2012-03-28, 03:28:04,VALID,1010.85,VALID,0,VALID,104,VALID,0,VALID,23.0688,VALID,43,VALID,0.161328,
2012-03-28, 03:29:04,VALID,1010.91,VALID,0,VALID,104,VALID,0,VALID,23.1272,VALID,43,VALID,0.00273437,
2012-03-28, 03:30:04,VALID,1010.89,VALID,0,VALID,104,VALID,0,VALID,23.1874,VALID,43,VALID,0.0574219,
2012-03-28, 03:31:04,VALID,1010.89,VALID,0,VALID,104,VALID,0.112112,VALID,23.2069,VALID,43,VALID,0.0710938,
2012-03-28, 03:32:04,VALID,1010.92,VALID,0,VALID,104,VALID,0,VALID,23.1679,VALID,43,VALID,0.469141,
2012-03-28, 03:33:04,VALID,1010.97,VALID,0,VALID,104,VALID,0,VALID,23.1485,VALID,43,VALID,0.0484375,
2012-03-28, 03:34:04,VALID,1010.98,VALID,0,VALID,104,VALID,0,VALID,23.1095,VALID,43,VALID,0,
2012-03-28, 03:35:04,VALID,1011,VALID,0,VALID,104,VALID,0,VALID,23.09,VALID,43,VALID,0.169922,
2012-03-28, 03:36:04,VALID,1011,VALID,0,VALID,104,VALID,0,VALID,23.1485,VALID,43,VALID,0.398047,
2012-03-28, 03:37:04,VALID,1010.99,VALID,0,VALID,104,VALID,0,VALID,23.1874,VALID,43,VALID,0.4375,
2012-03-28, 03:38:04,VALID,1010.97,VALID,0,VALID,104,VALID,0,VALID,23.2051,VALID,43,VALID,0.416016,
2012-03-28, 03:39:04,VALID,1010.96,VALID,0,VALID,104,VALID,0,VALID,23.2441,VALID,43,VALID,0.238672,
2012-03-28, 03:40:04,VALID,1010.95,VALID,0,VALID,104,VALID,0,VALID,23.2848,VALID,43,VALID,0.239844,
2012-03-28, 03:41:04,VALID,1010.97,VALID,0,VALID,104,VALID,0,VALID,23.3043,VALID,43,VALID,0.110547,
2012-03-28, 03:42:04,VALID,1010.99,VALID,0,VALID,104,VALID,0,VALID,23.3238,VALID,43,VALID,0,
2012-03-28, 03:43:04,VALID,1010.96,VALID,0,VALID,104,VALID,0,VALID,23.3628,VALID,43,VALID,0,
2012-03-28, 03:44:04,VALID,1010.96,VALID,0,VALID,104,VALID,0,VALID,23.3628,VALID,43,VALID,0,
2012-03-28, 03:45:04,VALID,1010.97,VALID,0,VALID,104,VALID,0,VALID,23.3628,VALID,43,VALID,0,
2012-03-28, 03:46:04,VALID,1010.94,VALID,0,VALID,104,VALID,0,VALID,23.4017,VALID,43,VALID,0,
2012-03-28, 03:47:04,VALID,1010.95,VALID,0,VALID,104,VALID,0.112112,VALID,23.3805,VALID,43,VALID,0,
2012-03-28, 03:48:04,VALID,1010.93,VALID,0,VALID,104,VALID,0,VALID,23.4212,VALID,43,VALID,0,
2012-03-28, 03:49:04,VALID,1010.94,VALID,0,VALID,104,VALID,0,VALID,23.4602,VALID,43,VALID,0,
2012-03-28, 03:50:04,VALID,1010.93,VALID,0,VALID,104,VALID,0,VALID,23.4602,VALID,43,VALID,0.003125,
2012-03-28, 03:51:04,VALID,1010.88,VALID,0,VALID,104,VALID,0,VALID,23.4797,VALID,43,VALID,0.284375,
2012-03-28, 03:52:04,VALID,1010.83,VALID,0,VALID,104,VALID,0,VALID,23.4797,VALID,43,VALID,0,
2012-03-28, 03:53:04,VALID,1010.86,VALID,0,VALID,104,VALID,0,VALID,23.4602,VALID,43,VALID,0,
2012-03-28, 03:54:04,VALID,1010.86,VALID,0,VALID,104,VALID,0,VALID,23.4602,VALID,43,VALID,0,
2012-03-28, 03:55:04,VALID,1010.86,VALID,0,VALID,104,VALID,0,VALID,23.4407,VALID,43,VALID,0,
2012-03-28, 03:56:04,VALID,1010.89,VALID,0,VALID,104,VALID,0,VALID,23.462,VALID,43,VALID,0,
2012-03-28, 03:57:04,VALID,1010.86,VALID,0,VALID,104,VALID,0,VALID,23.4602,VALID,43,VALID,0,
2012-03-28, 03:58:04,VALID,1010.89,VALID,0,VALID,104,VALID,0,VALID,23.4602,VALID,43,VALID,0,
2012-03-28, 03:59:04,VALID,1010.9,VALID,0,VALID,104,VALID,0.112112,VALID,23.4602,VALID,43,VALID,0,
2012-03-28, 04:00:04,VALID,1010.85,VALID,0,VALID,104,VALID,0.112112,VALID,23.4407,VALID,43,VALID,0,
2012-03-28, 04:01:04,VALID,1010.88,VALID,0,VALID,104,VALID,0,VALID,23.4407,VALID,43,VALID,0,
2012-03-28, 04:02:04,VALID,1010.86,VALID,0,VALID,104,VALID,0,VALID,23.4407,VALID,43,VALID,0,
2012-03-28, 04:03:04,VALID,1010.86,VALID,0,VALID,104,VALID,0,VALID,23.4407,VALID,43,VALID,0,
2012-03-28, 04:04:04,VALID,1010.87,VALID,0,VALID,104,VALID,0,VALID,23.4212,VALID,43,VALID,0,